Home   Weather   Dornbirn   Past weeks

Flag for Austria Past Weather in Dornbirn, Vorarlberg, Austria — Yesterday and Last 2 Weeks

Now
73 °F

Mild.


Feels Like: 76 °F
Forecast: 59 / 70 °F
Wind: No wind

Location: Bregenz

Current Time: Jun 24, 2017 at 9:01:28 am

Latest Report: Jun 24, 2017 at 8:00 am


Visibility: N/A

Pressure: 30.05 "Hg

Humidity: 67%

Dew Point: 61 °F

Location of DornbirnLocation

Past Weather in Dornbirn — Graph

°F

Dornbirn Temperature Yesterday

Maximum temperature yesterday: 90 °F (at 6:00 pm)
Minimum temperature yesterday: 77 °F (at 7:00 am)
Average temperature yesterday: 83 °F

High & Low Weather Summary for the Past Weeks

 TemperatureHumidityPressure
High92 °F (Jun 22, 5:00 pm)96% (Jun 10, 6:00 am)30.28 "Hg (Jun 10, 6:00 am)
Low51 °F (Jun 9, 7:00 am)26% (Jun 16, 7:00 pm)29.85 "Hg (Jun 22, 7:00 pm)
Average73 °F58%30.04 "Hg
* Reported Jun 9 7:00 am — Jun 24 7:00 am, Dornbirn. Weather by CustomWeather, © 2017

Note: Actual official high and low records may vary slightly from our data, if they occured in-between our weather recording intervals... More about our weather records

Advertising

Dornbirn Weather History for the Previous 24 Hours

Scroll right to see more
 ConditionsComfort  
Time TempWeatherWind HumidityBarometerVisibility
7:00 am
Sat, Jun 24
73 °FMild.1 mph65%30.04 "HgN/A
6:00 am73 °FMild.1 mph70%30.03 "HgN/A
5:00 am74 °FMild.No wind71%30.03 "HgN/A
4:00 am74 °FMild.1 mph68%30.03 "HgN/A
3:00 am74 °FMild.1 mph64%30.03 "HgN/A
1:00 am74 °FMild.1 mph64%30.04 "HgN/A
12:00 am77 °FWarm.1 mph62%30.03 "HgN/A
10:00 pm
Fri, Jun 23
79 °FWarm.No wind60%30.00 "HgN/A
9:00 pm83 °FWarm.2 mph50%29.97 "HgN/A
8:00 pm83 °FWarm.3 mph45%29.96 "HgN/A
7:00 pm82 °FWarm.2 mph45%29.95 "HgN/A
6:00 pm90 °FHot.5 mph41%29.91 "HgN/A
5:00 pm90 °FHot.5 mph42%29.92 "HgN/A
4:00 pm88 °FHot.3 mph43%29.93 "HgN/A
3:00 pm87 °FWarm.3 mph47%29.94 "HgN/A
2:00 pm87 °FOvercast.3 mph44%29.96 "Hg7 mi
1:00 pm86 °FWarm.2 mph43%29.97 "HgN/A
12:00 pm86 °FWarm.1 mph43%29.97 "HgN/A
11:00 am84 °FOvercast.2 mph45%29.98 "Hg7 mi
10:00 am81 °FWarm.3 mph48%29.98 "HgN/A
9:00 am79 °FWarm.5 mph51%29.98 "HgN/A
Weather by CustomWeather, © 2017

See weather overviewHow to use our weather pages